Time,TemperatureF,DewpointF,PressureIn,WindDirection,WindDirectionDegrees,WindSpeedMPH,WindSpeedGustMPH,Humidity,HourlyPrecipIn,Conditions,Clouds,dailyrainin,SoftwareType,DateUTC
2013-04-24 00:01:00,48.0,46.0,30.10,North,0,0.0,0.0,94,0.00,,,0.00,,2013-04-24 04:01:00,
2013-04-24 00:03:00,48.0,47.0,30.08,North,0,0.0,0.0,95,0.00,,,0.00,,2013-04-24 04:03:00,
2013-04-24 00:12:00,48.0,47.0,30.08,North,0,0.0,0.0,95,0.00,,,0.00,,2013-04-24 04:12:00,
2013-04-24 00:23:00,48.0,47.0,30.09,North,0,0.0,0.0,95,0.00,,,0.00,,2013-04-24 04:23:00,
2013-04-24 00:33:00,48.0,47.0,30.10,North,0,0.0,0.0,95,0.00,,,0.00,,2013-04-24 04:33:00,
2013-04-24 00:43:00,48.0,47.0,30.10,North,0,0.0,0.0,95,0.00,,,0.00,,2013-04-24 04:43:00,
2013-04-24 00:53:00,48.0,47.0,30.10,North,0,0.0,0.0,95,0.00,,,0.00,,2013-04-24 04:53:00,
2013-04-24 01:02:00,47.0,46.0,30.10,North,0,0.0,0.0,95,0.00,,,0.00,,2013-04-24 05:02:00,
2013-04-24 01:12:00,47.0,46.0,30.10,North,0,0.0,0.0,95,0.00,,,0.00,,2013-04-24 05:12:00,
2013-04-24 01:22:00,48.0,47.0,30.11,North,0,0.0,0.0,96,0.00,,,0.00,,2013-04-24 05:22:00,
2013-04-24 01:32:00,48.0,47.0,30.10,North,0,0.0,0.0,96,0.00,,,0.00,,2013-04-24 05:32:00,
2013-04-24 01:42:00,48.0,47.0,30.10,North,0,0.0,0.0,96,0.00,,,0.00,,2013-04-24 05:42:00,
2013-04-24 01:52:00,48.0,47.0,30.10,North,0,0.0,0.0,96,0.00,,,0.00,,2013-04-24 05:52:00,
2013-04-24 02:02:00,48.0,47.0,30.10,North,0,0.0,0.0,96,0.00,,,0.00,,2013-04-24 06:02:00,
2013-04-24 02:12:00,48.0,47.0,30.10,North,0,0.0,0.0,96,0.00,,,0.00,,2013-04-24 06:12:00,
2013-04-24 02:22:00,47.0,46.0,30.10,North,0,0.0,0.0,96,0.00,,,0.00,,2013-04-24 06:22:00,
2013-04-24 02:33:00,47.0,46.0,30.10,North,0,0.0,0.0,95,0.00,,,0.00,,2013-04-24 06:33:00,
2013-04-24 02:42:00,47.0,46.0,30.10,North,0,0.0,0.0,95,0.00,,,0.00,,2013-04-24 06:42:00,
2013-04-24 02:51:00,47.0,46.0,30.09,North,0,0.0,0.0,96,0.00,,,0.00,,2013-04-24 06:51:00,
2013-04-24 03:02:00,46.0,45.0,30.09,North,0,0.0,0.0,96,0.00,,,0.00,,2013-04-24 07:02:00,
2013-04-24 03:11:00,46.0,45.0,30.09,North,0,0.0,0.0,96,0.00,,,0.00,,2013-04-24 07:11:00,
2013-04-24 03:22:00,46.0,45.0,30.08,North,0,0.0,0.0,96,0.00,,,0.00,,2013-04-24 07:22:00,
2013-04-24 03:32:00,46.0,45.0,30.08,North,0,0.0,0.0,96,0.00,,,0.00,,2013-04-24 07:32:00,
2013-04-24 03:42:00,46.0,45.0,30.08,North,0,0.0,0.0,96,0.00,,,0.00,,2013-04-24 07:42:00,
2013-04-24 03:52:00,46.0,45.0,30.08,North,0,0.0,0.0,96,0.00,,,0.00,,2013-04-24 07:52:00,
2013-04-24 04:02:00,45.0,44.0,30.08,North,0,0.0,0.0,96,0.00,,,0.00,,2013-04-24 08:02:00,
2013-04-24 04:12:00,45.0,44.0,30.08,North,0,0.0,0.0,96,0.00,,,0.00,,2013-04-24 08:12:00,
2013-04-24 04:21:00,45.0,44.0,30.08,North,0,0.0,0.0,96,0.00,,,0.00,,2013-04-24 08:21:00,
2013-04-24 04:33:00,45.0,44.0,30.08,North,0,0.0,0.0,96,0.00,,,0.00,,2013-04-24 08:33:00,
2013-04-24 04:42:00,45.0,44.0,30.08,North,0,0.0,0.0,96,0.00,,,0.00,,2013-04-24 08:42:00,
2013-04-24 04:52:00,45.0,44.0,30.07,North,0,0.0,0.0,96,0.00,,,0.00,,2013-04-24 08:52:00,
2013-04-24 05:02:00,44.0,43.0,30.07,North,0,0.0,0.0,96,0.00,,,0.00,,2013-04-24 09:02:00,
2013-04-24 05:11:00,44.0,43.0,30.07,North,0,0.0,0.0,96,0.00,,,0.00,,2013-04-24 09:11:00,
2013-04-24 05:21:00,44.0,43.0,30.07,North,0,0.0,0.0,96,0.00,,,0.00,,2013-04-24 09:21:00,
2013-04-24 05:33:00,44.0,43.0,30.08,North,0,0.0,0.0,96,0.00,,,0.00,,2013-04-24 09:33:00,
2013-04-24 05:42:00,44.0,43.0,30.08,North,0,0.0,0.0,96,0.00,,,0.00,,2013-04-24 09:42:00,
2013-04-24 05:53:00,44.0,43.0,30.08,North,0,0.0,0.0,97,0.00,,,0.00,,2013-04-24 09:53:00,
2013-04-24 06:02:00,44.0,43.0,30.08,North,0,0.0,0.0,97,0.00,,,0.00,,2013-04-24 10:02:00,
2013-04-24 06:12:00,44.0,43.0,30.08,North,0,0.0,0.0,97,0.00,,,0.00,,2013-04-24 10:12:00,
2013-04-24 06:22:00,44.0,43.0,30.09,North,0,0.0,0.0,96,0.00,,,0.00,,2013-04-24 10:22:00,
2013-04-24 06:32:00,44.0,43.0,30.09,North,0,0.0,0.0,97,0.00,,,0.00,,2013-04-24 10:32:00,
2013-04-24 06:42:00,44.0,43.0,30.09,North,0,0.0,0.0,97,0.00,,,0.00,,2013-04-24 10:42:00,
2013-04-24 06:52:00,43.0,42.0,30.09,North,0,0.0,0.0,97,0.00,,,0.00,,2013-04-24 10:52:00,
2013-04-24 07:02:00,43.0,42.0,30.09,North,0,0.0,0.0,97,0.00,,,0.00,,2013-04-24 11:02:00,
2013-04-24 07:12:00,43.0,42.0,30.10,North,0,0.0,0.0,97,0.00,,,0.00,,2013-04-24 11:12:00,
2013-04-24 07:21:00,43.0,42.0,30.10,North,0,0.0,0.0,97,0.00,,,0.00,,2013-04-24 11:21:00,
2013-04-24 07:32:00,44.0,43.0,30.10,North,0,0.0,0.0,97,0.00,,,0.00,,2013-04-24 11:32:00,
2013-04-24 07:42:00,44.0,43.0,30.10,North,0,0.0,0.0,97,0.00,,,0.00,,2013-04-24 11:42:00,
2013-04-24 07:52:00,45.0,44.0,30.11,North,0,0.0,0.0,98,0.00,,,0.00,,2013-04-24 11:52:00,
2013-04-24 08:02:00,45.0,44.0,30.11,North,0,0.0,0.0,98,0.00,,,0.00,,2013-04-24 12:02:00,
2013-04-24 08:11:00,50.0,49.0,30.11,North,0,0.0,2.0,98,0.00,,,0.00,,2013-04-24 12:11:00,
2013-04-24 08:22:00,50.0,49.0,30.11,North,0,0.0,2.0,98,0.00,,,0.00,,2013-04-24 12:22:00,
2013-04-24 08:32:00,52.0,51.0,30.11,North,0,0.0,5.0,98,0.00,,,0.00,,2013-04-24 12:32:00,
2013-04-24 08:42:00,52.0,51.0,30.11,North,0,0.0,5.0,98,0.00,,,0.00,,2013-04-24 12:42:00,
2013-04-24 08:52:00,54.0,53.0,30.11,North,0,0.0,3.0,98,0.00,,,0.00,,2013-04-24 12:52:00,
2013-04-24 09:01:00,55.0,54.0,30.11,SSE,156,2.0,6.0,98,0.00,,,0.00,,2013-04-24 13:01:00,
2013-04-24 09:12:00,55.0,54.0,30.11,SSE,156,2.0,6.0,98,0.00,,,0.00,,2013-04-24 13:12:00,
2013-04-24 09:22:00,58.0,54.0,30.11,SE,145,2.0,9.0,88,0.00,,,0.00,,2013-04-24 13:22:00,
2013-04-24 09:32:00,58.0,54.0,30.11,SE,145,2.0,9.0,88,0.00,,,0.00,,2013-04-24 13:32:00,
2013-04-24 09:41:00,58.0,54.0,30.11,SE,145,2.0,9.0,88,0.00,,,0.00,,2013-04-24 13:41:00,
2013-04-24 09:52:00,61.0,55.0,30.10,SSE,163,2.0,6.0,82,0.00,,,0.00,,2013-04-24 13:52:00,
2013-04-24 10:01:00,61.0,55.0,30.10,SSE,163,2.0,6.0,82,0.00,,,0.00,,2013-04-24 14:01:00,
2013-04-24 10:11:00,63.0,56.0,30.10,North,0,0.0,7.0,78,0.00,,,0.00,,2013-04-24 14:11:00,
2013-04-24 10:21:00,63.0,56.0,30.10,North,0,0.0,7.0,78,0.00,,,0.00,,2013-04-24 14:21:00,
2013-04-24 10:32:00,63.0,56.0,30.10,SSE,160,2.0,11.0,78,0.00,,,0.00,,2013-04-24 14:32:00,
2013-04-24 10:42:00,63.0,56.0,30.10,SSE,160,2.0,11.0,78,0.00,,,0.00,,2013-04-24 14:42:00,
2013-04-24 10:51:00,64.0,56.0,30.09,SE,143,4.0,11.0,76,0.00,,,0.00,,2013-04-24 14:51:00,
2013-04-24 11:01:00,64.0,56.0,30.09,SSE,149,6.0,16.0,75,0.00,,,0.00,,2013-04-24 15:01:00,
2013-04-24 11:11:00,64.0,56.0,30.09,SSE,149,6.0,16.0,75,0.00,,,0.00,,2013-04-24 15:11:00,
2013-04-24 11:22:00,66.0,57.0,30.08,South,169,1.0,8.0,74,0.00,,,0.00,,2013-04-24 15:22:00,
2013-04-24 11:33:00,66.0,56.0,30.08,SSE,161,2.0,9.0,71,0.00,,,0.00,,2013-04-24 15:33:00,
2013-04-24 11:43:00,66.0,56.0,30.08,SSE,161,2.0,9.0,71,0.00,,,0.00,,2013-04-24 15:43:00,
2013-04-24 11:53:00,67.0,56.0,30.06,SE,138,5.0,12.0,68,0.00,,,0.00,,2013-04-24 15:53:00,
2013-04-24 12:03:00,68.0,57.0,30.06,North,0,0.0,10.0,69,0.00,,,0.00,,2013-04-24 16:03:00,
2013-04-24 12:12:00,68.0,57.0,30.06,North,0,0.0,10.0,69,0.00,,,0.00,,2013-04-24 16:12:00,
2013-04-24 12:23:00,69.0,58.0,30.05,SE,135,4.0,13.0,68,0.00,,,0.00,,2013-04-24 16:23:00,
2013-04-24 12:32:00,69.0,57.0,30.04,SE,134,4.0,12.0,65,0.00,,,0.00,,2013-04-24 16:32:00,
2013-04-24 12:42:00,70.0,57.0,30.03,SSE,161,1.0,10.0,63,0.00,,,0.00,,2013-04-24 16:42:00,
2013-04-24 12:52:00,70.0,57.0,30.03,SSE,161,1.0,10.0,63,0.00,,,0.00,,2013-04-24 16:52:00,
2013-04-24 13:02:00,71.0,58.0,30.02,SSE,162,1.0,14.0,63,0.00,,,0.00,,2013-04-24 17:02:00,
2013-04-24 13:12:00,71.0,58.0,30.02,SSE,162,1.0,14.0,63,0.00,,,0.00,,2013-04-24 17:12:00,
2013-04-24 13:22:00,72.0,57.0,30.02,SE,139,5.0,12.0,60,0.00,,,0.00,,2013-04-24 17:22:00,
2013-04-24 13:32:00,72.0,55.0,30.02,ESE,121,2.0,13.0,56,0.00,,,0.00,,2013-04-24 17:32:00,
2013-04-24 13:42:00,72.0,55.0,30.02,ESE,121,2.0,13.0,56,0.00,,,0.00,,2013-04-24 17:42:00,
2013-04-24 13:52:00,72.0,55.0,30.02,ESE,121,2.0,13.0,56,0.00,,,0.00,,2013-04-24 17:52:00,
2013-04-24 14:02:00,74.0,56.0,30.01,South,172,5.0,15.0,54,0.00,,,0.00,,2013-04-24 18:02:00,
2013-04-24 14:12:00,74.0,56.0,30.01,South,172,5.0,15.0,54,0.00,,,0.00,,2013-04-24 18:12:00,
2013-04-24 14:22:00,74.0,56.0,30.01,South,172,5.0,15.0,54,0.00,,,0.00,,2013-04-24 18:22:00,
2013-04-24 14:33:00,75.0,59.0,30.01,SE,140,3.0,15.0,57,0.00,,,0.00,,2013-04-24 18:33:00,
2013-04-24 14:42:00,75.0,59.0,30.01,SE,140,3.0,15.0,57,0.00,,,0.00,,2013-04-24 18:42:00,
2013-04-24 14:52:00,75.0,57.0,30.01,SSE,152,5.0,15.0,53,0.00,,,0.00,,2013-04-24 18:52:00,
2013-04-24 15:02:00,75.0,59.0,30.00,ESE,107,2.0,10.0,57,0.00,,,0.00,,2013-04-24 19:02:00,
2013-04-24 15:11:00,75.0,59.0,30.00,ESE,107,2.0,10.0,57,0.00,,,0.00,,2013-04-24 19:11:00,
2013-04-24 15:22:00,75.0,57.0,30.00,SE,145,4.0,10.0,54,0.00,,,0.00,,2013-04-24 19:22:00,
2013-04-24 15:32:00,76.0,58.0,29.99,East,92,2.0,14.0,53,0.00,,,0.00,,2013-04-24 19:32:00,
2013-04-24 15:42:00,76.0,58.0,29.99,East,92,2.0,14.0,53,0.00,,,0.00,,2013-04-24 19:42:00,
2013-04-24 15:52:00,75.0,57.0,29.98,SE,142,4.0,13.0,53,0.00,,,0.00,,2013-04-24 19:52:00,
2013-04-24 16:02:00,75.0,57.0,29.97,SE,137,3.0,11.0,54,0.00,,,0.00,,2013-04-24 20:02:00,
2013-04-24 16:11:00,75.0,57.0,29.97,SE,137,3.0,11.0,54,0.00,,,0.00,,2013-04-24 20:11:00,
2013-04-24 16:22:00,75.0,57.0,29.97,SE,139,3.0,13.0,53,0.00,,,0.00,,2013-04-24 20:22:00,
2013-04-24 16:32:00,75.0,57.0,29.97,South,171,2.0,10.0,54,0.00,,,0.00,,2013-04-24 20:32:00,
2013-04-24 16:42:00,75.0,57.0,29.97,South,171,2.0,10.0,54,0.00,,,0.00,,2013-04-24 20:42:00,
2013-04-24 16:52:00,75.0,57.0,29.96,South,177,1.0,8.0,53,0.00,,,0.00,,2013-04-24 20:52:00,
2013-04-24 17:02:00,75.0,56.0,29.96,SE,125,3.0,11.0,52,0.00,,,0.00,,2013-04-24 21:02:00,
2013-04-24 17:11:00,75.0,56.0,29.96,SE,125,3.0,11.0,52,0.00,,,0.00,,2013-04-24 21:11:00,
2013-04-24 17:22:00,75.0,56.0,29.96,SE,125,3.0,11.0,52,0.00,,,0.00,,2013-04-24 21:22:00,
2013-04-24 17:33:00,74.0,57.0,29.95,SSE,152,4.0,10.0,55,0.00,,,0.00,,2013-04-24 21:33:00,
2013-04-24 17:42:00,74.0,57.0,29.95,SSE,152,4.0,10.0,55,0.00,,,0.00,,2013-04-24 21:42:00,
2013-04-24 17:53:00,74.0,56.0,29.94,SSE,162,3.0,9.0,54,0.00,,,0.00,,2013-04-24 21:53:00,
2013-04-24 18:03:00,74.0,57.0,29.94,SSE,160,4.0,10.0,55,0.00,,,0.00,,2013-04-24 22:03:00,
2013-04-24 18:12:00,74.0,57.0,29.94,SSE,160,4.0,10.0,55,0.00,,,0.00,,2013-04-24 22:12:00,
2013-04-24 18:22:00,73.0,56.0,29.93,SSW,194,2.0,13.0,55,0.00,,,0.00,,2013-04-24 22:22:00,
2013-04-24 18:33:00,73.0,57.0,29.93,SE,134,3.0,7.0,57,0.00,,,0.00,,2013-04-24 22:33:00,
2013-04-24 18:42:00,73.0,57.0,29.93,SE,134,3.0,7.0,57,0.00,,,0.00,,2013-04-24 22:42:00,
2013-04-24 18:52:00,73.0,57.0,29.93,ESE,117,1.0,4.0,57,0.00,,,0.00,,2013-04-24 22:52:00,
2013-04-24 19:02:00,73.0,56.0,29.93,North,0,0.0,7.0,56,0.00,,,0.00,,2013-04-24 23:02:00,
2013-04-24 19:12:00,73.0,56.0,29.93,North,0,0.0,7.0,56,0.00,,,0.00,,2013-04-24 23:12:00,
2013-04-24 19:21:00,73.0,56.0,29.93,North,0,0.0,7.0,56,0.00,,,0.00,,2013-04-24 23:21:00,
2013-04-24 19:32:00,72.0,57.0,29.94,North,0,0.0,5.0,60,0.00,,,0.00,,2013-04-24 23:32:00,
2013-04-24 19:42:00,72.0,57.0,29.94,North,0,0.0,5.0,60,0.00,,,0.00,,2013-04-24 23:42:00,
2013-04-24 19:52:00,72.0,57.0,29.94,North,0,0.0,5.0,60,0.00,,,0.00,,2013-04-24 23:52:00,
2013-04-24 20:02:00,71.0,58.0,29.93,North,0,0.0,3.0,64,0.00,,,0.00,,2013-04-25 00:02:00,
2013-04-24 20:12:00,71.0,58.0,29.93,North,0,0.0,3.0,64,0.00,,,0.00,,2013-04-25 00:12:00,
2013-04-24 20:23:00,69.0,58.0,29.94,North,0,0.0,4.0,67,0.00,,,0.00,,2013-04-25 00:23:00,
2013-04-24 20:32:00,68.0,57.0,29.95,North,0,0.0,3.0,68,0.00,,,0.00,,2013-04-25 00:32:00,
2013-04-24 20:42:00,68.0,57.0,29.95,North,0,0.0,3.0,68,0.00,,,0.00,,2013-04-25 00:42:00,
2013-04-24 20:52:00,68.0,58.0,29.95,North,0,0.0,2.0,70,0.00,,,0.00,,2013-04-25 00:52:00,
2013-04-24 21:01:00,67.0,58.0,29.95,North,0,0.0,1.0,72,0.00,,,0.00,,2013-04-25 01:01:00,
2013-04-24 21:11:00,67.0,58.0,29.95,North,0,0.0,1.0,72,0.00,,,0.00,,2013-04-25 01:11:00,
2013-04-24 21:23:00,68.0,58.0,29.96,North,0,0.0,4.0,71,0.00,,,0.00,,2013-04-25 01:23:00,
2013-04-24 21:32:00,68.0,58.0,29.96,North,0,0.0,3.0,70,0.00,,,0.00,,2013-04-25 01:32:00,
2013-04-24 21:42:00,68.0,58.0,29.96,North,0,0.0,3.0,70,0.00,,,0.00,,2013-04-25 01:42:00,
2013-04-24 21:52:00,67.0,57.0,29.97,North,0,0.0,2.0,71,0.00,,,0.00,,2013-04-25 01:52:00,
2013-04-24 22:02:00,67.0,58.0,29.98,North,0,0.0,0.0,73,0.00,,,0.00,,2013-04-25 02:02:00,
2013-04-24 22:11:00,67.0,58.0,29.98,North,0,0.0,0.0,73,0.00,,,0.00,,2013-04-25 02:11:00,
2013-04-24 22:22:00,67.0,58.0,29.98,North,0,0.0,0.0,73,0.00,,,0.00,,2013-04-25 02:22:00,
2013-04-24 22:32:00,65.0,58.0,29.98,North,0,0.0,0.0,77,0.00,,,0.00,,2013-04-25 02:32:00,
2013-04-24 22:42:00,65.0,58.0,29.98,North,0,0.0,0.0,77,0.00,,,0.00,,2013-04-25 02:42:00,
2013-04-24 22:52:00,65.0,58.0,29.98,North,0,0.0,0.0,77,0.00,,,0.00,,2013-04-25 02:52:00,
2013-04-24 23:02:00,63.0,57.0,29.97,North,0,0.0,1.0,81,0.00,,,0.00,,2013-04-25 03:02:00,
2013-04-24 23:11:00,63.0,57.0,29.97,North,0,0.0,4.0,80,0.00,,,0.00,,2013-04-25 03:11:00,
2013-04-24 23:22:00,63.0,57.0,29.97,North,0,0.0,4.0,80,0.00,,,0.00,,2013-04-25 03:22:00,
2013-04-24 23:33:00,63.0,57.0,29.96,North,0,0.0,3.0,80,0.00,,,0.00,,2013-04-25 03:33:00,
2013-04-24 23:42:00,63.0,57.0,29.96,North,0,0.0,3.0,80,0.00,,,0.00,,2013-04-25 03:42:00,
2013-04-24 23:52:00,63.0,57.0,29.96,North,0,0.0,2.0,81,0.00,,,0.00,,2013-04-25 03:52:00,